User: anonymous
Location: Dover
(39.1580°N, 75.5250°W)
Time: 03:59:58
(UTC-04:00)
Language:

SeaSat 1 - Orbit

View from above orbital plane
View from above orbital plane
View from above satellite
View from above satellite

Ground track
Ground track

The orbit data is extracted from the following two-line orbital elements,

1 10967U 78064A   14237.78498841  .00000108  00000-0  72824-4 0  3646
2 10967 107.9895 316.3330 0002832 260.4444 206.6673 14.43060096898516
Epoch (UTC): 25 August 2014 18:50:22
Eccentricity: 0.0002832
inclination: 107.9895°
perigee height: 746 km
apogee height: 750 km
right ascension of ascending node: 316.3330°
argument of perigee: 260.4444°
revolutions per day: 14.43060096
mean anomaly at epoch: 206.6673°
orbit number at epoch: 89851

The dashed part of the orbit path shows where the satellite is in the earth's shadow,  

DLR